Wind_Speed
6 7 7 7 8 8 8 8 8 8 9 10 10 11 11 12 13 13 14 14 15 16 17 18 18 19 20 22 22 23 23 24 25 25 24 24 24 24
7 7 8 8 8 9 9 10 10 10 10 11 11 12 13 14 14 15 16 17 17 18 18 19 20 21 22 22 23 24 24 24 25 26 26 26 26 26
7 8 8 9 9 10 10 11 11 11 11 12 12 13 14 15 16 17 18 19 19 20 20 21 22 23 23 24 24 24 25 25 25 26 27 27 27 27
9 9 9 10 10 10 11 11 11 11 12 13 13 14 15 16 17 18 19 20 20 21 22 23 24 24 25 25 25 25 26 26 26 27 27 28 28 29
10 11 11 11 11 11 11 12 12 12 13 14 15 15 16 17 18 19 20 21 22 23 23 24 25 26 26 26 27 27 27 27 27 27 28 29 30 30
12 12 11 11 11 12 12 13 13 13 14 15 16 17 18 19 20 21 22 23 24 24 25 26 26 27 27 27 27 28 28 28 29 30 30 31 31 32
12 11 11 12 12 12 13 13 14 14 15 16 18 19 20 21 22 22 23 24 25 26 27 27 27 27 28 28 29 29 30 30 31 32 33 33 34 35
11 12 12 12 13 14 14 15 15 16 17 18 19 21 22 22 23 24 24 25 26 27 28 28 28 29 29 30 31 31 32 32 33 34 34 35 35 36
12 12 13 14 14 15 16 17 18 18 19 21 21 22 23 23 24 25 25 26 27 29 29 30 30 31 31 32 33 33 34 35 35 35 36 37 37 38
13 13 14 15 16 16 17 18 19 20 21 22 22 23 23 24 25 25 26 27 29 30 31 31 32 33 33 34 35 35 36 37 38 38 38 39 39 40
14 14 15 16 17 17 18 19 20 21 21 22 23 23 24 25 25 27 28 29 30 31 32 32 33 34 34 35 36 37 38 39 39 39 39 39 40 40
16 16 17 18 18 19 20 21 21 22 22 23 24 25 26 26 28 28 29 30 31 32 34 34 34 35 35 36 37 39 40 40 40 40 40 40 41 41
17 18 19 19 20 21 21 22 22 23 24 24 25 26 27 28 30 31 32 32 33 34 35 36 36 37 38 38 39 40 40 40 40 41 41 41 41 42
19 19 20 21 21 22 22 22 23 24 25 26 26 28 29 30 31 32 33 34 35 36 37 37 38 38 38 39 40 40 41 41 41 41 41 42 42 42
20 20 21 21 22 23 23 24 25 26 26 27 28 29 31 32 33 34 35 36 36 37 38 39 39 40 40 40 41 41 41 41 41 41 42 42 42 42
21 21 22 23 24 24 25 26 26 27 28 29 30 31 32 33 34 35 36 37 37 38 39 40 40 41 41 42 42 41 41 41 42 42 43 43 44 44
23 23 24 25 26 27 27 28 29 29 30 31 32 33 34 35 36 37 38 38 39 39 40 41 41 41 42 43 43 42 42 42 43 44 44 44 43 43
25 25 26 26 27 28 29 30 30 31 32 33 34 35 36 37 37 38 39 39 40 40 40 41 42 42 43 44 43 43 43 43 44 44 44 43 42 42
26 27 27 28 29 31 31 32 32 33 34 34 35 36 37 38 38 39 39 40 41 41 41 42 42 43 44 43 43 43 43 43 43 43 43 43 42 42
28 29 29 30 31 33 33 33 34 34 35 36 37 38 39 40 40 40 40 41 42 42 42 42 43 44 44 43 41 42 43 43 42 42 42 42 42 42
31 31 32 33 33 33 34 35 35 36 37 37 38 39 41 41 41 41 42 42 42 42 42 42 43 44 43 43 42 42 43 43 43 42 42 41 42 42
33 33 34 34 35 35 35 36 36 37 38 39 40 41 41 42 41 42 42 42 42 42 43 43 43 43 43 43 43 43 44 44 44 45 44 44 43 42
35 35 36 36 37 37 37 38 38 39 40 41 41 41 42 42 41 41 41 41 42 43 43 44 44 44 45 45 45 45 44 45 45 45 46 45 45 43
Wind_Direction
282 276 278 281 283 286 289 289 288 288 288 290 291 291 293 294 294 294 294 293 294 294 294 295 296 296 296 294 292 291 289 287 285 284 284 282 280 276
287 284 283 283 283 286 289 289 289 289 290 292 293 295 296 296 296 296 297 297 297 297 297 297 297 297 297 297 295 294 292 290 288 286 284 283 281 278
290 289 288 287 285 287 288 290 290 289 288 290 292 294 295 296 296 296 296 297 298 298 298 298 298 297 297 297 296 295 293 292 291 289 286 284 282 280
291 291 290 290 289 289 290 291 291 291 292 293 294 295 296 297 297 297 297 297 298 298 298 297 297 298 298 297 296 295 294 292 291 290 288 286 285 282
289 289 289 289 289 291 291 292 293 295 297 298 297 297 296 297 298 299 300 299 299 299 299 298 298 297 297 297 296 296 295 294 292 291 290 288 287 286
285 287 288 290 292 293 294 294 295 296 297 298 299 299 299 299 299 299 300 300 300 299 299 299 298 298 298 298 297 297 296 294 293 293 290 288 287 286
286 286 289 291 293 294 295 295 296 297 298 298 298 298 298 298 298 299 299 300 300 300 300 300 299 298 298 298 297 297 296 295 294 293 292 289 288 288
289 289 289 291 292 293 294 295 296 297 298 299 299 298 298 298 298 299 300 300 301 301 301 301 299 298 298 298 298 297 296 296 295 293 293 292 291 289
288 288 289 290 291 292 293 295 296 297 299 300 300 300 299 299 299 300 300 301 301 301 301 301 300 300 299 299 298 297 297 297 296 295 294 293 292 291
288 288 288 290 292 293 295 297 298 299 299 300 300 301 301 301 302 302 302 303 303 302 301 301 300 300 300 299 298 297 297 297 297 296 295 294 293 292
289 289 289 291 294 295 296 298 300 300 301 302 303 303 304 303 304 304 304 305 305 304 303 302 300 300 300 299 298 298 297 298 297 296 295 294 294 292
290 291 292 293 294 295 297 298 299 301 302 303 304 304 305 306 306 306 306 306 306 305 304 302 301 301 301 300 299 299 298 298 297 296 295 294 293 292
288 291 293 293 295 297 298 299 300 301 303 304 304 305 305 306 307 307 307 306 306 306 305 303 302 301 300 300 299 299 299 298 297 296 295 294 294 292
288 290 292 294 296 298 299 300 301 302 303 303 303 304 305 306 307 307 307 307 307 307 306 305 303 302 302 301 300 299 299 298 297 296 296 296 295 294
289 291 293 295 298 299 299 300 302 303 303 303 304 304 305 306 307 307 308 308 307 307 307 306 305 304 303 302 302 300 299 298 297 297 297 296 295 294
290 292 293 296 299 300 300 301 302 302 303 303 304 304 305 306 307 307 307 308 308 308 307 306 305 305 304 303 302 301 299 298 297 297 297 297 295 294
289 291 293 296 299 300 301 301 301 301 301 302 303 304 305 305 306 307 307 307 307 307 306 305 305 305 304 303 302 301 300 299 299 299 298 298 297 296
290 292 294 295 298 299 300 300 300 301 301 302 303 304 305 306 306 307 307 307 307 307 306 306 305 305 305 305 304 302 301 300 300 300 299 299 298 297
289 292 294 295 296 297 299 300 300 300 301 303 303 304 305 305 306 307 307 307 308 308 307 307 307 307 307 306 304 303 302 301 302 302 301 300 299 298
289 290 292 293 295 296 297 299 300 301 302 303 303 304 305 305 305 306 307 307 308 307 308 308 308 308 308 307 305 304 304 303 303 302 302 301 300 299
288 289 291 293 294 296 296 298 299 301 302 303 303 304 305 305 305 305 306 307 308 308 308 309 309 309 309 308 307 306 305 304 304 303 302 301 301 300
288 290 291 293 294 295 297 299 300 300 301 302 303 304 305 305 305 305 305 306 307 307 308 308 309 309 310 309 307 306 305 304 303 303 302 302 302 301
288 289 291 293 294 295 296 297 299 300 301 302 303 304 304 305 305 305 305 305 306 307 308 308 309 309 309 308 307 306 305 304 303 302 303 303 303 302
Height
5846 5846 5845 5845 5844 5844 5843 5842 5842 5841 5841 5840 5839 5838 5837 5836 5834 5833 5832 5831 5829 5828 5826 5825 5823 5821 5819 5818 5816 5814 5812 5810 5808 5806 5805 5803 5801 5799
5844 5844 5843 5843 5842 5842 5841 5840 5839 5839 5838 5837 5836 5835 5834 5832 5831 5830 5828 5827 5825 5824 5822 5820 5818 5816 5814 5812 5810 5808 5806 5803 5802 5800 5798 5796 5795 5794
5842 5842 5841 5841 5840 5839 5838 5837 5836 5836 5835 5834 5833 5832 5830 5829 5827 5826 5824 5822 5821 5819 5817 5815 5813 5811 5809 5806 5804 5802 5799 5797 5795 5793 5791 5789 5788 5787
5840 5839 5839 5838 5837 5837 5836 5835 5833 5833 5832 5830 5829 5828 5826 5825 5823 5821 5819 5817 5815 5814 5812 5809 5807 5805 5803 5800 5798 5795 5793 5791 5788 5786 5784 5782 5780 5779
5838 5837 5836 5835 5834 5834 5833 5832 5830 5829 5828 5827 5826 5824 5822 5821 5819 5817 5815 5812 5810 5808 5805 5803 5801 5798 5796 5793 5791 5788 5786 5784 5781 5779 5777 5775 5773 5771
5835 5834 5833 5832 5831 5830 5829 5828 5827 5826 5825 5823 5822 5820 5818 5816 5814 5812 5809 5807 5804 5802 5799 5796 5794 5791 5789 5786 5784 5781 5779 5776 5774 5771 5769 5767 5764 5762
5832 5831 5830 5829 5828 5827 5826 5825 5824 5822 5821 5819 5817 5815 5813 5811 5809 5806 5804 5801 5798 5795 5792 5789 5787 5784 5781 5779 5776 5773 5771 5768 5765 5763 5760 5758 5755 5753
5829 5828 5827 5826 5825 5824 5822 5821 5820 5818 5816 5815 5812 5810 5808 5805 5803 5800 5797 5795 5792 5789 5786 5782 5779 5776 5774 5771 5768 5765 5762 5759 5757 5754 5751 5748 5745 5742
5825 5824 5823 5822 5821 5820 5818 5817 5815 5813 5812 5809 5807 5804 5802 5799 5796 5794 5791 5788 5785 5781 5778 5775 5771 5768 5765 5762 5759 5756 5753 5750 5747 5744 5741 5737 5734 5731
5821 5820 5819 5818 5817 5815 5814 5812 5810 5808 5806 5804 5801 5798 5795 5792 5790 5787 5784 5781 5777 5773 5770 5767 5763 5760 5756 5753 5749 5746 5743 5739 5736 5733 5729 5726 5722 5719
5817 5816 5815 5814 5812 5810 5809 5807 5805 5802 5800 5797 5794 5792 5789 5786 5783 5780 5776 5773 5770 5766 5762 5758 5755 5751 5747 5743 5739 5735 5732 5728 5725 5721 5717 5714 5710 5707
5813 5812 5810 5809 5807 5805 5803 5801 5799 5797 5794 5791 5788 5785 5782 5779 5776 5772 5769 5765 5762 5758 5754 5750 5745 5742 5738 5734 5729 5725 5721 5717 5713 5709 5705 5702 5698 5694
5809 5807 5806 5804 5802 5800 5798 5796 5793 5791 5788 5785 5782 5779 5775 5772 5768 5765 5761 5757 5753 5749 5745 5740 5736 5732 5728 5724 5719 5714 5710 5706 5701 5697 5693 5689 5685 5682
5804 5802 5800 5798 5796 5794 5792 5790 5787 5784 5782 5779 5775 5772 5768 5765 5761 5757 5753 5748 5744 5740 5735 5730 5726 5721 5717 5713 5708 5703 5698 5694 5689 5685 5681 5677 5672 5668
5798 5796 5795 5793 5791 5788 5786 5783 5780 5778 5775 5771 5768 5764 5761 5757 5753 5748 5744 5739 5735 5730 5725 5720 5715 5710 5706 5701 5696 5692 5687 5682 5678 5673 5669 5664 5660 5656
5792 5790 5788 5786 5784 5782 5779 5776 5773 5770 5767 5764 5760 5757 5753 5748 5744 5739 5735 5730 5725 5720 5714 5709 5704 5699 5694 5689 5684 5679 5675 5670 5666 5661 5656 5652 5647 5642
5786 5784 5782 5780 5778 5775 5772 5769 5766 5763 5759 5756 5752 5748 5744 5740 5735 5730 5725 5720 5715 5710 5704 5699 5693 5688 5682 5677 5673 5668 5663 5658 5653 5648 5643 5639 5634 5629
5779 5777 5775 5773 5770 5767 5765 5762 5758 5755 5751 5747 5744 5739 5735 5731 5726 5721 5715 5710 5705 5699 5694 5688 5683 5677 5671 5665 5661 5656 5651 5646 5640 5635 5630 5625 5621 5616
5772 5770 5767 5765 5762 5760 5756 5753 5750 5746 5743 5739 5735 5730 5726 5721 5716 5711 5705 5700 5694 5689 5683 5677 5672 5666 5661 5655 5649 5643 5639 5634 5629 5623 5618 5613 5608 5603
5764 5762 5759 5757 5754 5751 5747 5744 5741 5737 5733 5729 5725 5720 5716 5711 5706 5701 5695 5690 5684 5678 5672 5666 5660 5654 5649 5644 5638 5632 5626 5621 5617 5611 5606 5601 5596 5591
5755 5753 5750 5747 5744 5741 5738 5735 5731 5727 5723 5719 5715 5710 5705 5700 5695 5690 5684 5679 5673 5667 5661 5656 5649 5643 5637 5632 5627 5621 5615 5609 5604 5599 5594 5589 5584 5579
5745 5743 5740 5737 5735 5731 5728 5725 5721 5717 5713 5709 5704 5699 5694 5689 5684 5679 5673 5668 5662 5656 5651 5645 5639 5632 5627 5621 5615 5610 5604 5597 5591 5585 5580 5576 5570 5566
5735 5733 5730 5727 5724 5721 5717 5714 5710 5706 5702 5698 5693 5688 5683 5678 5673 5667 5662 5656 5651 5646 5640 5634 5628 5622 5615 5609 5603 5597 5592 5586 5579 5573 5568 5561 5556 5552